Regional Weather Roundup
Issued by NWS

Home | Current Version | Previous Version | Text Only | Print | Product List | Glossary On
Versions: 1 2 3 4 5 6 7 8 9 10 11 12 13 14 15 16 17 18 19 20 21 22 23 24 25 26 27 28 29 30 31 32 33 34 35 36 37 38 39 40 41 42 43 44 45 46 47 48 49 50
000
ASUS43 KDTX 211410
RWRMI
MICHIGAN HOURLY REGIONAL WEATHER ROUNDUP
NATIONAL WEATHER SERVICE DETROIT/PONTIAC MI
900 AM EST SUN DEC 21 2014

NOTE: "FAIR" INDICATES FEW OR NO CLOUDS BELOW 12,000 FEET WITH NO
SIGNIFICANT WEATHER AND/OR OBSTRUCTION TO VISIBILITY.

MIZ047>049-052>055-059>063-066>070-074>076-081>083-211500-
SOUTHEAST LOWER MICHIGAN

CITY           SKY/WX    TMP DP  RH WIND       PRES   REMARKS
ADRIAN         CLOUDY    27  23  85 SE5       30.29F FOG     WCI  22
ALMA           CLOUDY    30  28  93 S5        30.26S FOG     WCI  25
ANN ARBOR      CLOUDY    28  25  88 CALM      30.29F FOG
BAD AXE        CLOUDY    25  24  95 CALM      30.29S FOG
CARO           CLOUDY    27  24  91 SE5       30.27F FOG     WCI  21
DETROIT CITY   MOCLDY    28  22  78 CALM      30.31F HAZE
DETROIT        MOCLDY    28  24  85 CALM      30.31F FOG
FLINT          CLOUDY    30  25  81 S3        30.28F HAZE
GROSSE ILE     PTCLDY    28  25  86 CALM      30.30F FOG
HILLSDALE      CLOUDY    29  28  96 S3        30.25F FOG
HOWELL         CLOUDY    28  25  89 SE5       30.26F FOG     WCI  22

CITY           SKY/WX    TMP DP  RH WIND       PRES   REMARKS
JACKSON        CLOUDY    29  25  85 S5        30.26S FOG     WCI  24
LAMBERTVILLE   MOCLDY    27  23  86 CALM      30.31S FOG
LANSING        CLOUDY    29  25  85 S5        30.27F FOG     WCI  24
LAPEER         CLOUDY    27  24  89 CALM      30.29S
MASON          CLOUDY    28  25  87 S3        30.26F FOG
MONROE         PTCLDY    21  21 100 CALM      30.29F FOG
MT. CLEMENS    MOCLDY    24  24  99 CALM      30.28F FOG
PONTIAC        CLOUDY    28  23  81 S6        30.27S WCI  22
PORT HOPE        N/A     26  21  81 CALM      30.28S
PORT HURON     MOCLDY    23  21  93 CALM      30.31S FOG
TRI CITIES     CLOUDY    30  25  81 S6        30.28S HAZE    WCI  24
TROY           CLOUDY    31  24  77 CALM      30.31F
SAGINAW HB     CLOUDY    30  28  93 S5        30.27F FOG     WCI  25
$$
MIZ043>046-050>051-056>058-064>065-071>073-077>080-211500-
SOUTHWEST LOWER MICHIGAN

CITY           SKY/WX    TMP DP  RH WIND       PRES   REMARKS
BATTLE CREEK   CLOUDY    31  26  82 S6        30.26S HAZE    WCI  25
BENTON HARBOR  CLOUDY    31  26  82 SE7       30.24F WCI  24
BIG RAPIDS     CLOUDY    30  30 100 S6        30.21F FOG     WCI  24
COLDWATER      CLOUDY    30  28  91 MISG      30.26S FOG
FREMONT        CLOUDY    31  29  93 S6        30.22S FOG     WCI  25
HOLLAND        CLOUDY    32  26  78 SE7       30.25S HAZE    WCI  26
GRAND RAPIDS   CLOUDY    30  26  85 S8        30.24F FOG     WCI  22
IONIA          CLOUDY    31  28  88 S7        30.24F FOG     WCI  24
KALAMAZOO      CLOUDY    31  26  82 S5        30.26S HAZE    WCI  26
LUDINGTON      CLOUDY    33  30  90 SE5       30.20F FOG     WCI  28
MARSHALL       CLOUDY    29  27  91 SE3       30.25F FOG
MOUNT PLEASANT CLOUDY    30  28  94 S3        30.25S FOG
MUSKEGON       CLOUDY    33  28  81 SE9       30.23S HAZE    WCI  25
SOUTH HAVEN    CLOUDY    32  27  83 S6        30.24S HAZE    WCI  26
$$
MIZ016>042-211500-
NORTHERN LOWER MICHIGAN

CITY           SKY/WX    TMP DP  RH WIND       PRES   REMARKS
ALPENA         CLOUDY    24  22  91 S3        30.26S
BEAVER ISLAND  CLOUDY    31  29  90 SE6       30.19S WCI  26
BELLAIRE       CLOUDY    29  26  88 CALM      30.22F
CADILLAC       FOG       28  28  98 S6        30.18S VSB 3/4 WCI  22
CHARLEVOIX     CLOUDY    28  25  91 SE6       30.23F WCI  21
FRANKFORT      CLOUDY    31  30  94 SE7       30.19F FOG     WCI  25
GAYLORD        CLOUDY    23  22  96 S5        30.19S FOG     WCI  17
GRAYLING       CLOUDY    28  28  97 S3        30.21S FOG
HARBOR SPRINGS CLOUDY    26  22  85 NE5       30.21S WCI  20
HOUGHTON LAKE  CLOUDY    26  25  96 S7        30.22S FOG     WCI  18
MANISTEE       CLOUDY    30  27  86 SE5       30.21S WCI  25
OSCODA         CLOUDY    24  23  96 CALM      30.27S FOG
PELLSTON       CLOUDY    25  21  85 S3        30.22S
ROGERS CITY    CLOUDY    24  22  94 S5        30.26S WCI  18
TRAVERSE CITY  CLOUDY    31  26  82 VRB3      30.20S HAZE
$$
MIZ007>008-015-211500-
EASTERN UPPER MICHIGAN

CITY           SKY/WX    TMP DP  RH WIND       PRES   REMARKS
KINROSS        CLOUDY    27  25  93 SE9       30.21S WCI  17
MACKINAC ISLAN CLOUDY    28  22  78 SE10      30.21S WCI  19
NEWBERRY       CLOUDY    27  26  96 SE10      30.17S WCI  17
S. S. MARIE    CLOUDY    25  21  85 E3        30.20S
MUNISING         N/A     30  25  81 S5        30.13F WCI  25
$$
MIZ004>006-011>014-085-211500-
CENTRAL UPPER MICHIGAN

CITY           SKY/WX    TMP DP  RH WIND       PRES   REMARKS
MANISTIQUE     CLOUDY    33  32  96 SE8       30.15F WCI  26
ESCANABA       CLOUDY    32  27  80 S6        30.13F WCI  26
MENOMINEE      CLOUDY    30  27  86 S6        30.13F WCI  24
SAWYER-GWINN   CLOUDY    27  25  93 S10       30.08F FOG     WCI  17
$$
MIZ001>003-009>011-084-211500-
WESTERN UPPER MICHIGAN

CITY           SKY/WX    TMP DP  RH WIND       PRES   REMARKS
IRON MOUNTAIN  CLOUDY    27  24  89 S8        30.07F FOG     WCI  19
HOUGHTON       CLOUDY    28  24  85 S5        30.02F WCI  23
COPPER HARBOR    N/A     34  27  75 VRB5      30.05F WCI  30
IRONWOOD       CLOUDY    30  27  86 S6G16     29.94F WCI  24
$$

ABBREVIATIONS USED IN REMARKS
   TC - TEMPERATURE IN CELSIUS
  WCI - WIND CHILL INDEX
   HX - HEAT INDEX
  VSB - VISIBILITY



USA.gov is the U.S. government's official web portal to all federal, state and local government web resources and services.